Weather in Nijmegen

Netherlands     51°50′31″N   5°51′40″E
temp.,
°C
wind,
m/s
gust,
m/s
humid.,
%
clouds,
%
prec.,
mm/h
press.,
hPa
HPBL,
m
19 april, mon
mon1923:00+8n488123 0.0 1022203
02:00+5n348557 0.0 102285
05:00+4nnw3487100 0.0 102170
08:00+6n2389100 0.6 1021113
11:00+7n129259 1.6 1021140
14:00+14e136279 2.3 10201262
17:00+14ene236451 1.9 10191014
20:00+11ese117543 3.5 101911
20 april, tue
tue2023:00+8e22875 0.1 101929
02:00+7e22855 0.1 101916
05:00+6ene22895 0.0 101926
08:00+7e238418 0.0 101988
11:00+13ene22679 0.0 1019598
14:00+16ene225642 0.6 10181411
17:00+15ne337099 2.1 1017452
20:00+13n237695 3.0 101740
21 april, wed
wed2123:00+10n3687100 0.1 1017135
02:00+9nne2482100 0.1 1017109
05:00+8nnw3583100 0.1 1017139
08:00+8n3782100 0.1 1018259
11:00+12n567282 0.0 1019987
14:00+11n466432 0.1 10201154
17:00+11nnw77460 0.0 10201218
20:00+8nnw59647 0.0 1021588
22 april, thu
thu2223:00+4n4870100 0.0 1023377
02:00+3nw2372100 0.0 102372
05:00+2nw3677100 0.0 1023137
08:00+4wnw397512 0.0 1023314
11:00+8nw6857100 0.0 10231454
14:00+10nnw5854100 0.1 10231884
17:00+10nnw696172 0.1 10231585
20:00+8nnw510724 0.3 1024803
23 april, fri
fri2323:00+4nnw36875 0.0 1026167
02:00+2nw23925 0.0 102664
05:00+2nw23935 0.0 102745
08:00+4nnw24875 0.0 1027148
11:00+10nnw34625 0.0 10271058
14:00+13nnw45495 0.0 10271594
17:00+13n56475 0.0 10261430
20:00+8n59635 0.0 1027485